Content
SEND FEEDBACK

Daily
Averages
Monthly
Summary
United States of America

ANN ARBOR, MICHIGAN


Home > North America > United States > Michigan
Elevation: 759 feet     Latitude: 42 17N     Longitude: 083 43W

WEATHER
 
SELECT A DAY
Number of Records: 207,075;   Date Range: 1/1/95 - 10/23/14
 
SHARE

PRINT THIS DATA

[ ← Previous Day ]
WEATHER ALMANAC - MARCH 29, 2014
[ Next Day → ]
[ °C ]   °F
Weather ElementAverageHighLow
Temperature35.6 °F37.9 °F (2:53 am)32 °F (11:53 pm)
Dewpoint27.1 °F30 °F (1:53 am)23 °F (9:53 pm)
Humidity71.4 %79 % (4:53 am)64 % (6:53 pm)
Barometer30.15 in30.19 in (2:53 am)30.08 in (4:53 pm)
Wind Speed11.2 mph16.1 mph (2:53 pm)
Wind Gust24.2 mph (2:53 pm)
Weather ElementAverage
Visibility9.9 mi
Wind DirectionENE (55.2 °)

Weather ElementTotal
Precipitation---
Heating Degree Days30.1 (Base 65)
Averaged from 23 records on March 29, 2014
WEATHER CONDITIONS BREAKOUT
WIND DIRECTION BREAKOUT
WEATHER BY HOUR - MARCH 29, 2014
[ °C ]   °F
Local TimeTemperatureDewpointHumidityBarometerVisibilityWind DirectionWind SpeedGust SpeedPrecipitationEventsConditions
1:53 AM37.0 °F30.0 °F76 %30.18 in10.0 miENE (60°)6.9 mphOvercast
2:53 AM37.9 °F30.0 °F73 %30.19 in10.0 miEast (80°)3.5 mphOvercast
3:53 AM37.0 °F30.0 °F76 %30.18 in10.0 miEast (90°)8.1 mphOvercast
4:53 AM36.0 °F30.0 °F79 %30.16 in10.0 miENE (60°)8.1 mphOvercast
5:53 AM35.1 °F28.9 °F78 %30.16 in9.0 miENE (60°)6.9 mphOvercast
6:53 AM35.1 °F28.0 °F76 %30.16 in9.0 miENE (60°)8.1 mphOvercast
7:53 AM35.1 °F28.0 °F76 %30.18 in10.0 miNE (50°)9.2 mphOvercast
8:53 AM35.1 °F28.0 °F76 %30.18 in9.0 miNE (50°)9.2 mphOvercast
9:53 AM35.1 °F28.0 °F76 %30.18 in10.0 miNE (50°)10.4 mphOvercast
10:53 AM36.0 °F28.0 °F73 %30.19 in10.0 miNE (40°)9.2 mph17.3 mphOvercast
11:53 AM37.9 °F27.0 °F65 %30.17 in10.0 miNE (40°)11.5 mphOvercast
12:53 PM37.0 °F27.0 °F67 %30.15 in10.0 miNNE (20°)13.8 mphOvercast
1:53 PM37.0 °F28.0 °F70 %30.12 in10.0 miNE (50°)12.7 mphOvercast
2:53 PM36.0 °F28.0 °F73 %30.10 in10.0 miNNE (30°)16.1 mph24.2 mphOvercast
3:53 PM37.0 °F27.0 °F67 %30.09 in10.0 miNorth (10°)16.1 mph24.2 mphOvercast
4:53 PM37.0 °F27.0 °F67 %30.08 in10.0 miNE (40°)13.8 mph23.0 mphOvercast
5:53 PM36.0 °F26.1 °F67 %30.09 in10.0 miNNE (30°)15.0 mphOvercast
6:53 PM36.0 °F25.0 °F64 %30.11 in10.0 miNorth (10°)15.0 mphOvercast
7:53 PM34.0 °F24.1 °F67 %30.14 in10.0 miNNE (20°)12.7 mph23.0 mphOvercast
8:53 PM34.0 °F24.1 °F67 %30.15 in10.0 miNNE (30°)16.1 mphOvercast
9:53 PM33.1 °F23.0 °F66 %30.16 in10.0 miNNE (20°)16.1 mph23.0 mphOvercast
10:53 PM33.1 °F24.1 °F70 %30.17 in10.0 miNorth (10°)10.4 mph19.6 mphOvercast
11:53 PM32.0 °F24.1 °F73 %30.16 in10.0 miNorth (360°)9.2 mphOvercast
Hourly data recorded from KARB, located miles away from Ann Arbor, Michigan







STORIES FROM OUR PARTNERS